Regional Weather Roundup
Issued by NWS

Home | Current Version | Previous Version | Text Only | Print | Product List | Glossary On
Versions: 1 2 3 4 5 6 7 8 9 10 11 12 13 14 15 16 17 18 19 20 21 22 23 24 25 26 27 28 29 30 31 32 33 34 35 36 37 38 39 40 41 42 43 44 45 46 47 48 49 50
000
ASUS43 KLSX 012007
RWRMO

WEATHER SUMMARY FOR MISSOURI
NATIONAL WEATHER SERVICE SPRINGFIELD MO
300 PM CDT MON SEP 01 2014

NOTE: "FAIR" INDICATES FEW OR NO CLOUDS BELOW 12,000 FEET WITH NO
       SIGNIFICANT WEATHER AND/OR OBSTRUCTIONS TO VISIBILITY.
       CURRENT SKY AND/OR WEATHER CONDITIONS ARE NOT AVAILABLE FOR
       CHILLICOTHE AND FARMINGTON.

MOZ001>031-035>038-043-044-053-054-012100-
...NORTHERN AND WESTERN MISSOURI...

CITY           SKY/WX    TMP DP  RH WIND       PRES   REMARKS
KANSAS CTY INT CLOUDY    77  68  73 SW8       29.90F
KANSAS C DTWN  CLOUDY    80  67  64 W8        29.89S
LEE`S SUMMIT   CLOUDY    78  68  71 SW12      29.90
ST JOSEPH      PTSUNNY   79  68  69 SW7       29.88F
CHILLICOTHE      N/A     81  67  62 VRB6      29.89S
KIRKSVILLE     MOSUNNY   79  67  66 SW10      29.88F

$$
MOZ066>068-077>081-088>096-101>105-012100-
...SOUTHWEST MISSOURI...

CITY           SKY/WX    TMP DP  RH WIND       PRES   REMARKS
SPRINGFIELD    SUNNY     83  66  56 S20       29.91F
JOPLIN         SUNNY     87  69  54 S16       29.88F HX  91

$$
MOZ032>034-039>042-045>050-055>058-069>072-012100-
...CENTRAL MISSOURI...

CITY           SKY/WX    TMP DP  RH WIND       PRES   REMARKS
COLUMBIA       PTSUNNY   83  65  54 W12       29.91S
JEFFERSON CITY SUNNY     84  65  52 W8G18     29.89F
ROLLA          MOSUNNY   80  65  59 SW8       29.91S
SEDALIA        MOSUNNY   81  67  62 VRB7      29.91F
WHITEMAN AFB   MOSUNNY   79  68  69 W8        29.90F
OSAGE BEACH    SUNNY     81  64  57 SW6       29.90F

$$
MOZ051-052-059>065-012100-
...EAST CENTRAL MISSOURI...

CITY           SKY/WX    TMP DP  RH WIND       PRES   REMARKS
ST LOUIS INTL  PTSUNNY   86  65  49 W5        29.90F
SPIRIT OF STL  CLOUDY    83  65  54 W6        29.88F
ST CHARLES     MOSUNNY   83  64  52 W8        29.87F

$$
MOZ072>076-082>087-097>100-106>115-012100-
...SOUTH CENTRAL AND SOUTHEAST MISSOURI...

CITY           SKY/WX    TMP DP  RH WIND       PRES   REMARKS
CAPE GIRARDEAU CLOUDY    82  71  69 SW13G22   29.90R
FARMINGTON     CLOUDY    81  64  57 W3        29.96R
POPLAR BLUFF   CLOUDY    84  72  67 S12       29.91F
WEST PLAINS    MOSUNNY   84  65  52 S14G24    29.96F

$$



USA.gov is the U.S. government's official web portal to all federal, state and local government web resources and services.